Flag Weather past 2 weeks in Frankfurt, Hesse, Germany

Now
55 °F

Partly cloudy.


Feels Like: 55 °F
Forecast: 47 / 61 °F
Wind: 2 mph from North

Location: Frankfurt-M-Flughafen Airport

Current Time: Oct 30, 2014 at 6:56:54 PM

Latest Report: Oct 30, 2014 at 6:20 PM


Visibility: 4 mi

Pressure: 30.27 "Hg

Humidity: 94%

Dew point: 54 °F

Location of FrankfurtLocation

Historic Weather in Frankfurt — Graph

°F

Frankfurt temperature yesterday

Maximum temperature yesterday: 52 °F (at 1:50 PM)
Minimum temperature yesterday: 45 °F (at 12:20 AM)
Average temperature yesterday: 48 °F

Past Weeks' High & Low Weather Summary

 TemperatureHumidityPressure
High72 °F (Oct 19, 3:50 PM)100% (Oct 16, 12:50 AM)30.33 "Hg (Oct 16, 12:50 AM)
Low39 °F (Oct 24, 2:20 AM)60% (Oct 20, 1:50 PM)29.56 "Hg (Oct 21, 5:50 PM)
Average53 °F87%30.09 "Hg
* Reported Oct 15 6:20 PM — Oct 30 5:50 PM, Frankfurt, Weather by CustomWeather, © 2014

Note: Actual official high and low records may vary slightly from our data, if they occured in-between our weather recording intervals... More about our weather records

Advertising

Frankfurt weather history for previous 24 hours

 ConditionsComfort  
Time TempWeatherWind HumidityBarometerVisibility
5:50 PM
Oct 30
55 °FPartly cloudy.1 mph94%30.27 "Hg4 mi
5:20 PM55 °FPassing clouds.No wind94%30.27 "Hg4 mi
4:50 PM55 °FPartly sunny.No wind94%30.27 "Hg4 mi
4:20 PM55 °FPartly sunny.3 mph94%30.27 "Hg4 mi
3:50 PM55 °FOvercast.2 mph88%30.27 "Hg4 mi
3:20 PM55 °FLow clouds.2 mph88%30.24 "Hg4 mi
2:50 PM55 °FLow clouds.3 mph88%30.27 "Hg4 mi
2:20 PM55 °FMore clouds than sun.3 mph88%30.27 "Hg4 mi
1:50 PM55 °FPartly sunny.2 mph88%30.27 "Hg4 mi
1:20 PM55 °FMostly cloudy.3 mph88%30.27 "Hg4 mi
12:50 PM54 °FFog.2 mph94%30.27 "Hg3 mi
12:20 PM54 °FFog.2 mph94%30.27 "Hg3 mi
11:50 AM54 °FFog.3 mph94%30.27 "Hg3 mi
11:20 AM54 °FFog.2 mph88%30.27 "Hg3 mi
10:50 AM52 °FFog.1 mph94%30.27 "Hg2 mi
10:20 AM52 °FFog.2 mph94%30.24 "Hg2 mi
9:50 AM52 °FFog.2 mph94%30.24 "Hg2 mi
9:20 AM50 °FFog.2 mph100%30.24 "Hg3 mi
8:50 AM50 °FFog.2 mph94%30.24 "Hg3 mi
8:20 AM50 °FFog.3 mph94%30.24 "Hg3 mi
7:50 AM50 °FLight rain. Fog.2 mph94%30.24 "Hg3 mi
7:20 AM50 °FFog.No wind94%30.21 "Hg3 mi
6:50 AM48 °FFog.No wind100%30.21 "Hg3 mi
6:20 AM48 °FFog.2 mph100%30.21 "Hg3 mi
5:50 AM50 °FFog.1 mph94%30.18 "Hg3 mi
5:20 AM48 °FFog.2 mph100%30.18 "Hg3 mi
4:50 AM48 °FFog.No wind100%30.18 "Hg3 mi
4:20 AM48 °FFog.No wind100%30.18 "Hg3 mi
3:50 AM48 °FFog.No wind100%30.18 "Hg3 mi
3:20 AM48 °FFog.No wind100%30.18 "Hg3 mi
2:50 AM48 °FFog.No wind100%30.18 "Hg3 mi
2:20 AM48 °FFog.No wind100%30.18 "Hg3 mi
1:50 AM48 °FFog.No wind100%30.18 "Hg3 mi
1:20 AM48 °FFog.No wind100%30.18 "Hg3 mi
12:50 AM48 °FFog.No wind100%30.15 "Hg3 mi
12:20 AM48 °FFog.No wind100%30.15 "Hg3 mi
11:50 PM
Oct 29
48 °FLight rain. Overcast.No wind100%30.15 "Hg3 mi
11:20 PM48 °FLight rain. Overcast.No wind100%30.15 "Hg4 mi
10:50 PM48 °FOvercast.No wind94%30.15 "Hg4 mi
10:20 PM48 °FLight rain. Passing clouds.No wind94%30.15 "Hg4 mi
9:50 PM48 °FPassing clouds.No wind94%30.15 "Hg5 mi
9:20 PM48 °FPassing clouds.No wind94%30.15 "Hg4 mi
8:50 PM48 °FLight rain. Passing clouds.No wind94%30.12 "Hg5 mi
8:20 PM48 °FRain. Partly cloudy.No wind94%30.12 "HgN/A
7:50 PM48 °FLight rain. Passing clouds.No wind94%30.12 "HgN/A
7:20 PM48 °FLight rain. Overcast.3 mph87%30.09 "HgN/A
6:50 PM48 °FPassing clouds.No wind87%30.09 "HgN/A
6:20 PM48 °FPartly cloudy.1 mph87%30.09 "HgN/A
Weather by CustomWeather, © 2014

See weather overviewHow to use our weather pages